Overview Statistics Trail Chart Weather Telemetry Raw packets
 

This is the latest recevied weather packets stored in our database for station/object IZ8QAD-4. If no packets are shown the sender has not sent any weather packets the latest 10 day(s).

<< 1 2 3 4 >>
Time Temp. Humidity Pressure Rain* Wind** Luminosity Snow
1788604774 32.22° C 35% 972 hPa - - - -
1788602978 32.22° C 34% 972.2 hPa - - - -
1788601177 31.67° C 33% 972.1 hPa - - - -
1788599377 31.67° C 28% 972.1 hPa - - - -
1788597577 31.11° C 28% 972.1 hPa - - - -
1788595776 31.11° C 28% 972 hPa - - - -
1788593976 31.11° C 28% 971.9 hPa - - - -
1788592176 31.11° C 29% 971.9 hPa - - - -
1788590375 31.67° C 27% 971.6 hPa - - - -
1788588575 31.11° C 26% 971.6 hPa - - - -
1788586775 31.67° C 26% 971.6 hPa - - - -
1788584974 31.67° C 25% 971.4 hPa - - - -
1788583174 32.22° C 25% 971.3 hPa - - - -
1788581375 32.22° C 28% 971.4 hPa - - - -
1788579575 32.22° C 28% 971.5 hPa - - - -
1788577775 32.22° C 28% 971.4 hPa - - - -
1788575975 32.22° C 27% 971.5 hPa - - - -
1788574175 32.22° C 27% 971.4 hPa - - - -
1788572374 32.22° C 27% 971.7 hPa - - - -
1788570574 32.78° C 27% 971.7 hPa - - - -
1788568773 32.78° C 27% 971.7 hPa - - - -
1788566973 32.78° C 27% 971.9 hPa - - - -
1788565173 32.78° C 27% 971.9 hPa - - - -
1788563373 32.78° C 27% 972 hPa - - - -
1788561639 32.78° C 27% 971.9 hPa - - - -

* Rain since midnight (hover to see other rain measurements)
** Current wind speed in m/s (hover to see current wind gust speed)